Location: Auckland
(36.8500°S, 174.7800°E)
Time: 08:57:19
(UTC+12:00)

ISS - Visible Passes

Search period start: 28 June 2017 00:00
Search period end: 08 July 2017 00:00
Orbit: 401 x 408 km, 51.6° (Epoch: 28 June)

Date Brightness Start Highest point End Pass type
(mag) Time Alt. Az. Time Alt. Az. Time Alt. Az.
28 Jun -2.4 18:18:11 10° N 18:20:56 24° NE 18:21:58 20° ENE visible
28 Jun -0.3 19:54:18 10° W 19:54:39 12° W 19:54:39 12° W visible
29 Jun -3.3 19:01:44 10° WNW 19:04:52 57° SW 19:04:52 57° SW visible
30 Jun -3.7 18:09:30 10° NW 18:12:47 67° NE 18:15:01 19° ESE visible
30 Jun -0.5 19:47:19 10° WSW 19:47:41 12° WSW 19:47:41 12° WSW visible
01 Jul -2.1 18:54:17 10° W 18:57:08 26° SSW 18:57:45 24° SSW visible
02 Jul -3.0 18:01:33 10° WNW 18:04:45 45° SW 18:07:45 12° SE visible
03 Jul -1.4 18:47:23 10° WSW 18:49:22 15° SSW 18:50:20 13° S visible
04 Jul -1.8 17:54:10 10° W 17:56:51 22° SSW 17:59:33 10° SSE visible
06 Jul -1.2 17:47:23 10° SW 17:49:03 13° SSW 17:50:42 10° S visible
